User: anonymous   Login
Location: Unspecified
(0.0000°N, 0.0000°E)
Time: 14:07:04
(UTC+01:00)
Language:

Centaur D-1AR AC-41 - Orbit

View from above orbital plane
View from above orbital plane
View from above satellite
View from above satellite

Ground track
Ground track

The orbit data is extracted from the following two-line orbital elements,

1 10976U 78068B   15057.37802223 -.00000029  00000-0 -59018-3 0  9996
2 10976 021.1532 132.9889 7186870 102.1267 356.9255 02.22296923297522
Epoch (UTC): 26 February 2015 09:04:21
Eccentricity: 0.7186870
inclination: 21.1532°
perigee height: 598 km
apogee height: 36244 km
right ascension of ascending node: 132.9889°
argument of perigee: 102.1267°
revolutions per day: 2.22296923
mean anomaly at epoch: 356.9255°
orbit number at epoch: 29752

The dashed part of the orbit path shows where the satellite is in the earth's shadow,  

DLR